Cumberland, WI

5:46 PM CST on December 15, 2019 (GMT -0600)
Cumberland Municipal

Weather History for KUBE - October, 2019

Change the Weather History Date:

Monday, October 14, 2019

  Actual Average (KRPD) Record (KRPD)
Temperature  
Mean Temperature 38 °F -  
Max Temperature 48 °F 55 °F 69 °F (2005)
Min Temperature 28 °F 36 °F 28 °F (2006)
Degree Days  
Heating Degree Days 27    
Moisture  
Dew Point 30 °F    
Average Humidity 78    
Maximum Humidity 100    
Minimum Humidity 50    
Precipitation  
Precipitation 0.00 in - - ()
Sea Level Pressure  
Sea Level Pressure 29.95 in    
Wind  
Wind Speed 6 mph (WSW)    
Max Wind Speed 12 mph    
Max Gust Speed -    
Visibility 10 miles    
Events      
Averages and records for this station are not official NWS values.
T = Trace of Precipitation, MM = Missing Value Source: NWS Daily Summary

Daily Weather History Graph

Daily Weather History Graph

Search for Another Location

Airport or City:

Astronomy

Oct. 14, 2019 Rise Set
Actual Time 7:22 AM CDT 6:24 PM CDT
Civil Twilight 6:52 AM CDT 6:54 PM CDT
Nautical Twilight 6:18 AM CDT 7:28 PM CDT
Astronomical Twilight 5:44 AM CDT 8:02 PM CDT
Moon 7:14 PM CDT (10/14) 7:53 AM CDT (10/14)
Length of Visible Light 12h 01m
Length of Day
11h 01m
Full, 99% of the Moon is Illuminated
Oct 14
Full
Oct 21
Last Quarter
Oct 27
New
Nov 4
First Quarter
Nov 12
Full

Hourly Weather History & Observations

Time (CDT) Temp. Windchill Dew Point Humidity Pressure Visibility Wind Dir Wind Speed Gust Speed Precip Events Conditions
12:15 AM 33.8 °F 28.6 °F 30.2 °F 87% 29.88 in 10.0 mi West 5.8 mph - N/A   Overcast
12:35 AM 33.8 °F 28.6 °F 30.2 °F 87% 29.89 in 10.0 mi West 5.8 mph - N/A   Overcast
12:55 AM 33.8 °F 27.7 °F 30.2 °F 87% 29.89 in 10.0 mi West 6.9 mph - N/A   Overcast
1:15 AM 35.6 °F 30.7 °F 30.2 °F 81% 29.89 in 10.0 mi West 5.8 mph - N/A   Overcast
1:35 AM 33.8 °F 29.6 °F 30.2 °F 87% 29.90 in 10.0 mi West 4.6 mph - N/A   Overcast
1:55 AM 33.8 °F 28.6 °F 30.2 °F 87% 29.90 in 10.0 mi West 5.8 mph - N/A   Mostly Cloudy
2:15 AM 32.0 °F 26.4 °F 30.2 °F 93% 29.90 in 10.0 mi West 5.8 mph - N/A   Mostly Cloudy
2:35 AM 32.0 °F 26.4 °F 30.2 °F 93% 29.90 in 10.0 mi West 5.8 mph - N/A   Scattered Clouds
2:55 AM 32.0 °F 25.6 °F 30.2 °F 93% 29.91 in 10.0 mi West 6.9 mph - N/A   Clear
3:15 AM 32.0 °F 24.8 °F 30.2 °F 93% 29.92 in 10.0 mi West 8.1 mph - N/A   Scattered Clouds
3:35 AM 32.0 °F 27.5 °F 28.4 °F 87% 29.91 in 10.0 mi WNW 4.6 mph - N/A   Scattered Clouds
3:55 AM 30.2 °F 25.4 °F 28.4 °F 93% 29.92 in 10.0 mi West 4.6 mph - N/A   Clear
4:15 AM 28.4 °F 24.6 °F 28.4 °F 100% 29.92 in 10.0 mi West 3.5 mph - N/A   Clear
4:35 AM 28.4 °F 23.3 °F 28.4 °F 100% 29.93 in 10.0 mi WSW 4.6 mph - N/A   Clear
4:55 AM 28.4 °F - 28.4 °F 100% 29.93 in 10.0 mi Calm Calm - N/A   Clear
5:15 AM 28.4 °F 23.3 °F 28.4 °F 100% 29.94 in 10.0 mi WSW 4.6 mph - N/A   Clear
5:35 AM 30.2 °F 25.4 °F 28.4 °F 93% 29.94 in 10.0 mi West 4.6 mph - N/A   Scattered Clouds
5:55 AM 28.4 °F 24.6 °F 28.4 °F 100% 29.94 in 10.0 mi WSW 3.5 mph - N/A   Clear
6:15 AM 28.4 °F 23.3 °F 28.4 °F 100% 29.95 in 10.0 mi West 4.6 mph - N/A   Mostly Cloudy
6:35 AM 30.2 °F 26.7 °F 28.4 °F 93% 29.96 in 10.0 mi West 3.5 mph - N/A   Overcast
6:55 AM 30.2 °F 25.4 °F 30.2 °F 100% 29.96 in 10.0 mi WSW 4.6 mph - N/A   Overcast
7:15 AM 30.2 °F 25.4 °F 30.2 °F 100% 29.97 in 10.0 mi WSW 4.6 mph - N/A   Overcast
7:35 AM 32.0 °F 28.7 °F 30.2 °F 93% 29.97 in 10.0 mi WSW 3.5 mph - N/A   Overcast
7:55 AM 32.0 °F 28.7 °F 30.2 °F 93% 29.97 in 10.0 mi SW 3.5 mph - N/A   Overcast
8:15 AM 32.0 °F 27.5 °F 30.2 °F 93% 29.98 in 10.0 mi WSW 4.6 mph - N/A   Overcast
8:35 AM 32.0 °F 28.7 °F 30.2 °F 93% 29.98 in 10.0 mi WSW 3.5 mph - N/A   Mostly Cloudy
8:55 AM 32.0 °F 28.7 °F 32.0 °F 100% 29.99 in 10.0 mi SW 3.5 mph - N/A   Overcast
9:15 AM 33.8 °F 28.6 °F 32.0 °F 93% 29.99 in 10.0 mi WSW 5.8 mph - N/A   Overcast
9:35 AM 35.6 °F 29.9 °F 32.0 °F 87% 30.00 in 10.0 mi West 6.9 mph - N/A   Overcast
9:55 AM 37.4 °F 29.8 °F 32.0 °F 81% 29.99 in 10.0 mi West 11.5 mph - N/A   Mostly Cloudy
10:15 AM 37.4 °F 30.3 °F 32.0 °F 81% 29.99 in 10.0 mi West 10.4 mph - N/A   Scattered Clouds
10:35 AM 37.4 °F 31.4 °F 30.2 °F 75% 29.99 in 10.0 mi West 8.1 mph - N/A   Clear
10:55 AM 41.0 °F 36.4 °F 30.2 °F 65% 29.99 in 10.0 mi West 6.9 mph - N/A   Clear
11:15 AM 41.0 °F 35.8 °F 30.2 °F 65% 29.99 in 10.0 mi WSW 8.1 mph - N/A   Clear
11:35 AM 42.8 °F 38.0 °F 30.2 °F 61% 29.99 in 10.0 mi WSW 8.1 mph - N/A   Clear
11:55 AM 42.8 °F 37.5 °F 30.2 °F 61% 29.98 in 10.0 mi WSW 9.2 mph - N/A   Clear
12:15 PM 42.8 °F 39.3 °F 30.2 °F 61% 29.98 in 10.0 mi WSW 5.8 mph - N/A   Clear
12:35 PM 44.6 °F 40.2 °F 28.4 °F 53% 29.98 in 10.0 mi West 8.1 mph - N/A   Scattered Clouds
12:55 PM 44.6 °F 40.2 °F 30.2 °F 57% 29.98 in 10.0 mi SW 8.1 mph - N/A   Scattered Clouds
1:15 PM 44.6 °F 42.2 °F 28.4 °F 53% 29.98 in 10.0 mi SW 4.6 mph - N/A   Scattered Clouds
1:35 PM 46.4 °F 41.9 °F 30.2 °F 53% 29.97 in 10.0 mi SW 9.2 mph - N/A   Scattered Clouds
1:55 PM 44.6 °F 43.1 °F 30.2 °F 57% 29.97 in 10.0 mi SW 3.5 mph - N/A   Scattered Clouds
2:15 PM 46.4 °F 42.9 °F 30.2 °F 53% 29.96 in 10.0 mi WSW 6.9 mph - N/A   Scattered Clouds
2:35 PM 46.4 °F 41.5 °F 30.2 °F 53% 29.95 in 10.0 mi SW 10.4 mph - N/A   Scattered Clouds
2:55 PM 46.4 °F 42.9 °F 30.2 °F 53% 29.95 in 10.0 mi SW 6.9 mph - N/A   Scattered Clouds
3:15 PM 48.2 °F - 30.2 °F 50% 29.95 in 10.0 mi SW 10.4 mph - N/A   Scattered Clouds
3:35 PM 46.4 °F 42.9 °F 28.4 °F 50% 29.94 in 10.0 mi SW 6.9 mph - N/A   Clear
3:55 PM 46.4 °F 42.4 °F 30.2 °F 53% 29.94 in 10.0 mi WSW 8.1 mph - N/A   Clear
4:15 PM 46.4 °F 41.9 °F 30.2 °F 53% 29.93 in 10.0 mi South 9.2 mph - N/A   Clear
4:35 PM 46.4 °F 42.4 °F 30.2 °F 53% 29.94 in 10.0 mi SW 8.1 mph - N/A   Clear
4:55 PM 46.4 °F 42.4 °F 30.2 °F 53% 29.94 in 10.0 mi SSW 8.1 mph - N/A   Clear
5:15 PM 46.4 °F 41.9 °F 30.2 °F 53% 29.93 in 10.0 mi SSW 9.2 mph - N/A   Clear
5:35 PM 44.6 °F 40.2 °F 28.4 °F 53% 29.93 in 10.0 mi SSW 8.1 mph - N/A   Clear
5:55 PM 42.8 °F 38.6 °F 30.2 °F 61% 29.93 in 10.0 mi SSW 6.9 mph - N/A   Clear
6:15 PM 42.8 °F 40.1 °F 30.2 °F 61% 29.93 in 10.0 mi SSW 4.6 mph - N/A   Clear
6:35 PM 41.0 °F 39.0 °F 32.0 °F 70% 29.93 in 10.0 mi SSW 3.5 mph - N/A   Clear
6:55 PM 39.2 °F - 32.0 °F 75% 29.93 in 10.0 mi Calm Calm - N/A   Clear
7:15 PM 39.2 °F - 32.0 °F 75% 29.93 in 10.0 mi Calm Calm - N/A   Clear
7:35 PM 39.2 °F - 32.0 °F 75% 29.93 in 10.0 mi Calm Calm - N/A   Clear
10:35 PM 33.8 °F - 32.0 °F 93% 29.95 in 10.0 mi Calm Calm - N/A   Unknown
10:55 PM 33.8 °F - 32.0 °F 93% 29.96 in 10.0 mi Calm Calm - N/A   Clear
11:15 PM 33.8 °F 30.8 °F 32.0 °F 93% 29.95 in 10.0 mi East 3.5 mph - N/A   Mostly Cloudy
11:35 PM 35.6 °F 32.8 °F 32.0 °F 87% 29.95 in 10.0 mi East 3.5 mph - N/A   Overcast
11:55 PM 35.6 °F - 32.0 °F 87% 29.95 in 10.0 mi Calm Calm - N/A   Overcast